TimeEDT,TemperatureF,Dew PointF,Humidity,Sea Level PressureIn,VisibilityMPH,Wind Direction,Wind SpeedMPH,Gust SpeedMPH,PrecipitationIn,Events,Conditions,WindDirDegrees,DateUTC
12:52 AM,33.1,30.0,89,30.07,10.0,Calm,Calm,-,N/A,,Clear,0,2013-05-27 04:52:00
1:31 AM,33.8,30.2,87,30.04,1.8,Calm,Calm,-,N/A,,Clear,0,2013-05-27 05:31:00
1:38 AM,32.0,30.2,93,30.04,4.0,Calm,Calm,-,N/A,,Clear,0,2013-05-27 05:38:00
1:52 AM,33.1,30.0,89,30.07,10.0,Calm,Calm,-,N/A,,Clear,0,2013-05-27 05:52:00
2:52 AM,32.0,28.9,88,30.07,10.0,Calm,Calm,-,N/A,,Scattered Clouds,0,2013-05-27 06:52:00
3:52 AM,30.9,28.0,89,30.08,10.0,Calm,Calm,-,N/A,,Mostly Cloudy,0,2013-05-27 07:52:00
4:02 AM,30.2,28.4,93,30.05,10.0,Calm,Calm,-,N/A,,Mostly Cloudy,0,2013-05-27 08:02:00
4:28 AM,30.2,28.4,93,30.06,1.8,Calm,Calm,-,N/A,,Overcast,0,2013-05-27 08:28:00
4:33 AM,30.2,28.4,93,30.06,3.0,Calm,Calm,-,N/A,,Overcast,0,2013-05-27 08:33:00
4:50 AM,30.2,28.4,93,30.07,10.0,Calm,Calm,-,N/A,,Overcast,0,2013-05-27 08:50:00
4:52 AM,30.9,28.0,89,30.10,10.0,Calm,Calm,-,N/A,,Overcast,0,2013-05-27 08:52:00
5:36 AM,32.0,28.4,87,30.08,4.0,Calm,Calm,-,N/A,,Mostly Cloudy,0,2013-05-27 09:36:00
5:48 AM,32.0,30.2,93,30.08,1.5,Calm,Calm,-,N/A,,Overcast,0,2013-05-27 09:48:00
5:50 AM,32.0,30.2,93,30.08,0.8,Calm,Calm,-,N/A,,Mist,0,2013-05-27 09:50:00
5:52 AM,32.0,30.0,92,30.12,0.5,Calm,Calm,-,N/A,Fog,Fog,0,2013-05-27 09:52:00
6:09 AM,32.0,30.2,93,30.08,1.0,Calm,Calm,-,N/A,,Overcast,0,2013-05-27 10:09:00
6:11 AM,32.0,30.2,93,30.08,2.0,Calm,Calm,-,N/A,,Overcast,0,2013-05-27 10:11:00
6:19 AM,33.8,30.2,87,30.09,8.0,Calm,Calm,-,N/A,,Mostly Cloudy,0,2013-05-27 10:19:00
6:52 AM,36.0,33.1,89,30.13,10.0,Calm,Calm,-,N/A,,Clear,0,2013-05-27 10:52:00
7:52 AM,43.0,37.0,80,30.13,10.0,Calm,Calm,-,N/A,,Clear,0,2013-05-27 11:52:00
8:52 AM,48.9,37.9,66,30.13,10.0,West,5.8,-,N/A,,Clear,280,2013-05-27 12:52:00
9:52 AM,53.1,37.0,55,30.12,10.0,West,9.2,-,N/A,,Clear,270,2013-05-27 13:52:00
10:52 AM,55.9,37.0,49,30.12,10.0,West,8.1,-,N/A,,Clear,280,2013-05-27 14:52:00
11:52 AM,59.0,35.1,41,30.11,10.0,WNW,11.5,21.9,N/A,,Mostly Cloudy,300,2013-05-27 15:52:00
12:52 PM,60.1,32.0,35,30.11,10.0,West,13.8,27.6,N/A,,Scattered Clouds,280,2013-05-27 16:52:00
1:52 PM,60.1,32.0,35,30.10,10.0,West,8.1,19.6,N/A,,Partly Cloudy,270,2013-05-27 17:52:00
2:52 PM,62.1,33.1,34,30.10,10.0,West,15.0,23.0,N/A,,Partly Cloudy,280,2013-05-27 18:52:00
3:52 PM,62.1,33.1,34,30.11,10.0,WNW,11.5,18.4,N/A,,Partly Cloudy,300,2013-05-27 19:52:00
4:52 PM,63.0,32.0,31,30.11,10.0,NW,10.4,-,N/A,,Partly Cloudy,310,2013-05-27 20:52:00
5:52 PM,61.0,32.0,34,30.12,10.0,NW,8.1,19.6,N/A,,Partly Cloudy,310,2013-05-27 21:52:00
6:52 PM,61.0,32.0,34,30.13,10.0,NNW,9.2,-,N/A,,Scattered Clouds,330,2013-05-27 22:52:00
7:52 PM,57.0,33.1,40,30.15,10.0,West,3.5,-,N/A,,Scattered Clouds,280,2013-05-27 23:52:00
8:52 PM,48.0,39.0,71,30.15,10.0,Calm,Calm,-,N/A,,Clear,0,2013-05-28 00:52:00
9:52 PM,44.1,37.0,76,30.17,10.0,East,3.5,-,N/A,,Clear,100,2013-05-28 01:52:00
10:52 PM,39.9,36.0,86,30.19,10.0,Calm,Calm,-,N/A,,Clear,0,2013-05-28 02:52:00
11:52 PM,37.9,34.0,86,30.21,10.0,Calm,Calm,-,N/A,,Clear,0,2013-05-28 03:52:00